GW7730 Weather Reports


time (UTC)temp
C
wind
direction
speed
KPH
gust
KPH
rain 1hr
cm
rain 24hr
cm
rain mn
cm
humidity
%
barometer
mb
20260906090035 23 0.0 0.0 0.00 0.00 0.00 92 1012.3
20260906084815 23 0.0 0.0 0.00 0.00 0.00 91 1012.3
20260906083635 23 0.0 0.0 0.00 0.00 0.00 91 1012.0
20260906082415 23 0.0 0.0 0.00 0.00 0.00 91 1012.0
20260906081255 23 0.0 0.0 0.00 0.00 0.00 90 1012.1
20260906080015 23 0.0 0.0 0.00 0.00 0.00 90 1012.2
20260906074816 24 0.0 0.0 0.00 0.00 0.00 90 1012.1
20260906073615 24 0.0 0.0 0.00 0.00 0.00 90 1011.9
20260906072415 24 0.0 0.0 0.00 0.00 0.00 90 1011.9
20260906071215 24 0.0 0.0 0.00 0.00 0.00 90 1012.1
20260906070015 24 7 1.6 3.2 0.00 0.00 0.00 90 1012.4
20260906064835 24 4 0.0 1.6 0.00 0.00 0.00 88 1012.4
20260906063615 24 7 1.6 1.6 0.00 0.00 0.00 88 1012.6
20260906062437 24 7 0.0 1.6 0.00 0.00 0.00 88 1012.6
20260906061217 24 7 0.0 1.6 0.00 0.00 0.00 87 1012.7
20260906060017 24 7 1.6 3.2 0.00 0.00 0.00 85 1012.7
20260906054817 24 0.0 0.0 0.00 0.00 0.00 86 1012.9
20260906053617 25 7 0.0 1.6 0.00 0.00 0.00 85 1013.0
20260906052417 25 10 0.0 1.6 0.00 0.00 0.00 82 1013.0
20260906051217 25 87 0.0 1.6 0.00 0.00 0.00 81 1012.9
20260906050016 25 0.0 1.6 0.00 0.00 0.00 79 1013.0
20260906044817 25 87 0.0 1.6 0.00 0.00 0.00 80 1012.9
20260906043616 25 87 0.0 1.6 0.00 0.00 0.00 80 1013.0
20260906042416 25 0.0 1.6 0.00 0.00 0.00 79 1012.9
20260906041216 25 87 0.0 1.6 0.00 0.00 0.00 78 1013.0
20260906040036 25 0.0 3.2 0.00 0.00 0.00 78 1012.9
20260906034817 26 207 1.6 3.2 0.00 0.00 0.00 81 1013.1
20260906033617 26 0.0 1.6 0.00 0.00 0.00 80 1013.1
20260906032417 26 0.0 0.0 0.00 0.00 0.00 79 1013.2
20260906031217 26 0.0 0.0 0.00 0.00 0.00 78 1013.4
20260906030036 26 233 0.0 1.6 0.00 0.00 0.00 78 1013.3
20260906024836 26 233 0.0 1.6 0.00 0.00 0.00 78 1013.4
20260906023617 26 0.0 0.0 0.00 0.00 0.00 77 1013.3
20260906022416 26 0.0 0.0 0.00 0.00 0.00 77 1013.3
20260906021237 26 0.0 0.0 0.00 0.00 0.00 76 1013.1
20260906020017 26 0.0 0.0 0.00 0.00 0.00 76 1013.2
20260906014816 26 0.0 0.0 0.00 0.00 0.00 75 1012.8
20260906013616 27 0.0 1.6 0.00 0.00 0.00 75 1012.7
20260906012416 27 237 0.0 1.6 0.00 0.00 0.00 75 1012.8
20260906011236 27 0.0 0.0 0.00 0.00 0.00 75 1012.7
20260906010017 27 237 0.0 3.2 0.00 0.00 0.00 75 1012.3
20260906004817 27 96 1.6 4.8 0.00 0.00 0.00 74 1012.1
20260906003616 27 227 0.0 1.6 0.00 0.00 0.00 73 1012.1
20260906002416 27 231 0.0 1.6 0.00 0.00 0.00 72 1012.2
20260906001216 27 315 1.6 3.2 0.00 0.00 0.00 71 1012.3
20260906000017 27 311 1.6 1.6 0.00 0.00 0.00 70 1012.2
20260905234837 28 301 0.0 3.2 0.00 0.00 0.00 68 1012.1
20260905233636 28 302 0.0 3.2 0.00 0.00 0.00 65 1012.0
20260905232416 28 43 0.0 1.6 0.00 0.00 0.00 66 1011.8
20260905231217 28 121 1.6 3.2 0.00 0.00 0.00 67 1012.3
20260905230016 29 326 1.6 4.8 0.00 0.00 0.00 67 1011.9
20260905224816 29 279 1.6 3.2 0.00 0.00 0.00 67 1011.7
20260905223616 30 140 1.6 6.4 0.00 0.00 0.00 65 1012.0
20260905222416 30 101 0.0 3.2 0.00 0.00 0.00 64 1011.7
20260905221216 30 243 1.6 6.4 0.00 0.00 0.00 63 1011.7
20260905220016 31 25 3.2 11.3 0.00 0.00 0.00 61 1011.6
20260905214817 32 93 3.2 9.7 0.00 0.00 0.00 56 1011.4
20260905213616 36 11 4.8 12.9 0.00 0.00 0.00 44 1011.5
20260905212416 38 35 1.6 4.8 0.00 0.00 0.00 39 1011.0
20260905211217 38 12 1.6 3.2 0.00 0.00 0.00 39 1011.4
20260905210016 38 35 0.0 3.2 0.00 0.00 0.00 39 1011.4
20260905204816 38 334 3.2 4.8 0.00 0.00 0.00 38 1011.5
20260905203616 38 283 1.6 4.8 0.00 0.00 0.00 37 1011.3
20260905202416 38 348 1.6 3.2 0.00 0.00 0.00 38 1011.2
20260905201216 38 287 1.6 4.8 0.00 0.00 0.00 38 1011.5
20260905200016 38 357 1.6 6.4 0.00 0.00 0.00 40 1011.6
20260905194816 38 221 1.6 4.8 0.00 0.00 0.00 36 1011.8
20260905193616 38 265 1.6 3.2 0.00 0.00 0.00 38 1011.8
20260905192416 37 353 1.6 4.8 0.00 0.00 0.00 40 1012.0
20260905191217 37 88 3.2 9.7 0.00 0.00 0.00 39 1012.1
20260905190016 37 151 1.6 8.0 0.00 0.00 0.00 38 1012.3
20260905184816 38 95 3.2 6.4 0.00 0.00 0.00 38 1012.5
20260905183616 38 341 1.6 4.8 0.00 0.00 0.00 37 1012.7
20260905182415 37 36 1.6 4.8 0.00 0.00 0.00 40 1012.8
20260905181216 37 115 4.8 12.9 0.00 0.00 0.00 42 1013.0
20260905180016 37 72 1.6 9.7 0.00 0.00 0.00 44 1013.2
20260905174815 37 3 1.6 3.2 0.00 0.00 0.00 44 1013.3
20260905173616 37 81 3.2 6.4 0.00 0.00 0.00 44 1013.3
20260905172415 37 31 1.6 3.2 0.00 0.00 0.00 46 1013.5
20260905171236 36 342 1.6 3.2 0.00 0.00 0.00 48 1013.6
20260905170016 35 273 0.0 6.4 0.00 0.00 0.00 49 1013.7
20260905164815 36 222 1.6 4.8 0.00 0.00 0.00 49 1014.1
20260905163616 35 300 1.6 6.4 0.00 0.00 0.00 50 1014.2
20260905162416 35 315 3.2 4.8 0.00 0.00 0.00 51 1014.5
20260905161215 35 336 3.2 8.0 0.00 0.00 0.00 51 1014.8
20260905160015 34 321 3.2 6.4 0.00 0.00 0.00 55 1015.0
20260905154856 34 337 3.2 4.8 0.00 0.00 0.00 56 1014.9
20260905153615 33 16 1.6 3.2 0.00 0.00 0.00 57 1015.0
20260905152415 33 343 0.0 3.2 0.00 0.00 0.00 61 1015.1
20260905151215 32 298 1.6 4.8 0.00 0.00 0.00 63 1015.2
20260905150015 31 1 1.6 4.8 0.00 0.00 0.00 67 1015.4
20260905144855 31 333 1.6 4.8 0.00 0.00 0.00 71 1015.5
20260905143615 30 310 1.6 4.8 0.00 0.00 0.00 73 1015.5
20260905142416 29 294 1.6 3.2 0.00 0.00 0.00 77 1015.7
20260905141235 28 6 1.6 4.8 0.00 0.00 0.00 81 1015.7
20260905140015 27 324 1.6 3.2 0.00 0.00 0.00 83 1015.7
20260905134816 27 336 1.6 3.2 0.00 0.00 0.00 87 1015.7
20260905133615 26 235 1.6 3.2 0.00 0.00 0.00 88 1015.7
20260905132415 26 6 1.6 3.2 0.00 0.00 0.00 90 1015.7
20260905131215 25 342 0.0 4.8 0.00 0.00 0.00 92 1015.8
20260905130015 25 242 0.0 3.2 0.00 0.00 0.00 94 1015.9
20260905124815 24 345 1.6 3.2 0.00 0.00 0.00 96 1015.9
20260905123615 23 19 0.0 1.6 0.00 0.00 0.00 96 1015.9
20260905122416 23 31 0.0 3.2 0.00 0.00 0.00 96 1015.7
20260905121215 22 0.0 1.6 0.00 0.00 0.00 96 1015.6
20260905120015 22 165 0.0 1.6 0.00 0.00 0.00 96 1015.6
20260905114815 22 164 0.0 1.6 0.00 0.00 0.00 95 1015.5
20260905113615 22 164 0.0 1.6 0.00 0.00 0.00 96 1015.4
20260905112415 22 0.0 0.0 0.00 0.00 0.00 96 1015.4
20260905111215 22 164 0.0 1.6 0.00 0.00 0.00 96 1015.4
20260905110015 22 0.0 0.0 0.00 0.00 0.00 95 1015.1
20260905104815 22 164 0.0 1.6 0.00 0.00 0.00 95 1015.0
20260905103635 22 164 1.6 1.6 0.00 0.00 0.00 96 1014.9
20260905102415 22 164 1.6 1.6 0.00 0.00 0.00 96 1014.8
20260905101215 22 0.0 1.6 0.00 0.00 0.00 95 1014.8
20260905100015 22 0.0 0.0 0.00 0.00 0.00 95 1014.7
20260905094815 22 164 0.0 1.6 0.00 0.00 0.00 95 1014.7
20260905093615 22 0.0 0.0 0.00 0.00 0.00 95 1014.7
20260905092415 22 0.0 0.0 0.00 0.00 0.00 94 1014.8
20260905091236 22 0.0 0.0 0.00 0.00 0.00 95 1014.7